SQ5DCP-1 Weather Reports


time (UTC)temp
C
wind
direction
speed
KPH
gust
KPH
rain 1hr
cm
rain 24hr
cm
rain mn
cm
humidity
%
barometer
mb
20260510084527 15 298 3.2 14.5 0.00 0.00 0.00 58 1017.4
20260510084025 15 290 8.0 17.7 0.00 0.00 0.00 58 1017.5
20260510083524 15 279 9.7 17.7 0.00 0.00 0.00 59 1017.5
20260510083022 14 292 4.8 14.5 0.00 0.00 0.00 60 1017.6
20260510082519 14 293 4.8 12.9 0.00 0.00 0.00 60 1017.5
20260510082019 13 311 3.2 9.7 0.00 0.00 0.00 61 1017.7
20260510081516 13 306 3.2 11.3 0.00 0.00 0.00 61 1017.7
20260510081035 13 300 6.4 20.9 0.00 0.00 0.00 61 1017.7
20260510080533 13 280 8.0 16.1 0.00 0.00 0.00 62 1017.7
20260510080031 13 313 4.8 12.9 0.00 0.00 0.00 62 1017.8
20260510075530 13 293 4.8 11.3 0.00 0.00 0.00 60 1017.9
20260510075027 13 285 8.0 17.7 0.00 0.00 0.00 62 1017.9
20260510074526 12 289 6.4 14.5 0.00 0.00 0.00 62 1017.8
20260510074024 12 304 3.2 11.3 0.00 0.00 0.00 63 1017.8
20260510073522 12 294 6.4 14.5 0.00 0.00 0.00 64 1017.9
20260510073020 12 296 4.8 12.9 0.00 0.00 0.00 65 1017.9
20260510072518 12 312 1.6 9.7 0.00 0.00 0.00 65 1017.9
20260510072016 12 278 6.4 14.5 0.00 0.00 0.00 65 1018.1
20260510071534 11 296 3.2 9.7 0.00 0.00 0.00 67 1018.1
20260510071034 11 272 3.2 11.3 0.00 0.00 0.00 68 1018.2
20260510070531 11 306 4.8 12.9 0.00 0.00 0.00 70 1018.2
20260510070029 11 185 3.2 9.7 0.00 0.00 0.00 72 1018.2
20260510065527 10 265 3.2 12.9 0.00 0.00 0.00 72 1018.3
20260510065027 10 283 3.2 11.3 0.00 0.00 0.00 75 1018.4
20260510064524 10 252 1.6 9.7 0.00 0.00 0.00 76 1018.4
20260510064022 10 258 1.6 6.4 0.00 0.00 0.00 77 1018.6
20260510063520 10 272 4.8 6.4 0.00 0.00 0.00 77 1018.7
20260510063018 9 258 3.2 11.3 0.00 0.00 0.00 79 1018.8
20260510062517 9 256 1.6 4.8 0.00 0.00 0.00 81 1018.8
20260510062034 8 267 1.6 4.8 0.00 0.00 0.00 82 1018.7
20260510061533 8 265 1.6 6.4 0.00 0.00 0.00 82 1018.7
20260510061031 8 231 3.2 6.4 0.00 0.00 0.00 83 1018.8
20260510060529 8 224 3.2 6.4 0.00 0.00 0.00 83 1018.9
20260510060028 7 195 3.2 9.7 0.00 0.00 0.00 84 1018.8
20260510055526 7 235 3.2 6.4 0.00 0.00 0.00 84 1018.9
20260510055024 7 226 1.6 6.4 0.00 0.00 0.00 85 1019.0
20260510054522 7 205 3.2 6.4 0.00 0.00 0.00 85 1019.0
20260510054020 6 180 4.8 9.7 0.00 0.00 0.00 85 1019.0
20260510053519 6 189 3.2 6.4 0.00 0.00 0.00 86 1019.1
20260510053017 6 190 3.2 12.9 0.00 0.00 0.00 85 1019.1
20260510052535 6 175 3.2 6.4 0.00 0.00 0.00 85 1019.2
20260510052033 5 173 3.2 4.8 0.00 0.00 0.00 85 1019.1
20260510051531 5 169 1.6 6.4 0.00 0.00 0.00 86 1019.1
20260510051030 5 176 1.6 3.2 0.00 0.00 0.00 85 1019.2
20260510050528 5 173 1.6 4.8 0.00 0.00 0.00 85 1019.0
20260510050026 5 180 1.6 4.8 0.00 0.00 0.00 85 1019.1
20260510045524 5 179 1.6 4.8 0.00 0.00 0.00 85 1019.1
20260510045022 4 178 3.2 4.8 0.00 0.00 0.00 85 1019.1
20260510044520 4 176 3.2 4.8 0.00 0.00 0.00 85 1019.1
20260510044050 4 173 1.6 4.8 0.00 0.00 0.00 84 1019.2
20260510044019 4 173 1.6 4.8 0.00 0.00 0.00 84 1019.2
20260510043517 3 171 1.6 4.8 0.00 0.00 0.00 83 1019.2
20260510043035 3 0.0 0.0 0.00 0.00 0.00 82 1019.1
20260510042533 3 158 0.0 3.2 0.00 0.00 0.00 82 1019.2
20260510042032 3 168 0.0 3.2 0.00 0.00 0.00 81 1019.3
20260510041530 3 0.0 0.0 0.00 0.00 0.00 81 1019.3
20260510041028 3 0.0 0.0 0.00 0.00 0.00 80 1019.3
20260510040526 3 115 0.0 1.6 0.00 0.00 0.00 80 1019.3
20260510040024 3 0.0 0.0 0.00 0.00 0.00 80 1019.3
20260510035522 3 0.0 0.0 0.00 0.00 0.00 80 1019.3
20260510035021 3 0.0 0.0 0.00 0.00 0.00 80 1019.3
20260510034519 3 0.0 0.0 0.00 0.00 0.00 79 1019.4
20260510034048 3 0.0 0.0 0.00 0.00 0.00 79 1019.4
20260510034017 3 0.0 0.0 0.00 0.00 0.00 79 1019.4
20260510033536 3 0.0 0.0 0.00 0.00 0.00 79 1019.4
20260510033034 3 0.0 0.0 0.00 0.00 0.00 78 1019.4
20260510032532 3 0.0 0.0 0.00 0.00 0.00 78 1019.6
20260510032030 3 0.0 0.0 0.00 0.00 0.00 78 1019.5
20260510031528 3 0.0 0.0 0.00 0.00 0.00 78 1019.5
20260510031059 3 0.0 0.0 0.00 0.00 0.00 78 1019.6
20260510031026 3 0.0 0.0 0.00 0.00 0.00 78 1019.6
20260510030525 3 0.0 0.0 0.00 0.00 0.00 78 1019.6
20260510030023 3 0.0 0.0 0.00 0.00 0.00 78 1019.6
20260510025522 3 0.0 0.0 0.00 0.00 0.00 78 1019.7
20260510025019 3 0.0 0.0 0.00 0.00 0.00 78 1019.7
20260510024517 3 0.0 0.0 0.00 0.00 0.00 78 1019.7
20260510024036 3 0.0 0.0 0.00 0.00 0.00 78 1019.8
20260510023535 3 104 1.6 3.2 0.00 0.00 0.00 78 1019.8
20260510023032 3 108 1.6 4.8 0.00 0.00 0.00 77 1019.7
20260510022530 3 0.0 0.0 0.00 0.00 0.00 77 1019.8
20260510022028 3 0.0 0.0 0.00 0.00 0.00 77 1019.8
20260510021527 3 0.0 0.0 0.00 0.00 0.00 77 1019.8
20260510021024 3 0.0 0.0 0.00 0.00 0.00 77 1019.7
20260510020523 3 0.0 0.0 0.00 0.00 0.00 77 1019.8
20260510020021 3 0.0 0.0 0.00 0.00 0.00 77 1019.8
20260510015519 3 0.0 0.0 0.00 0.00 0.00 76 1019.7
20260510015017 3 0.0 0.0 0.00 0.00 0.00 76 1019.7
20260510014516 3 0.0 0.0 0.00 0.00 0.00 76 1019.7
20260510014034 3 0.0 0.0 0.00 0.00 0.00 76 1019.7
20260510013532 3 0.0 0.0 0.00 0.00 0.00 76 1019.6
20260510013043 3 0.0 0.0 0.00 0.00 0.00 76 1019.8
20260510012530 3 0.0 0.0 0.00 0.00 0.00 76 1019.8
20260510012028 3 0.0 0.0 0.00 0.00 0.00 76 1019.7
20260510011527 3 0.0 0.0 0.00 0.00 0.00 76 1019.7
20260510011104 3 0.0 0.0 0.00 0.00 0.00 76 1019.7
20260510011025 3 0.0 0.0 0.00 0.00 0.00 76 1019.7
20260510010523 3 0.0 0.0 0.00 0.00 0.00 76 1019.7
20260510010022 3 0.0 0.0 0.00 0.00 0.00 76 1019.8
20260510005520 3 0.0 0.0 0.00 0.00 0.00 76 1019.9
20260510005050 3 0.0 0.0 0.00 0.00 0.00 76 1019.9
20260510005018 3 0.0 0.0 0.00 0.00 0.00 76 1019.9
20260510004516 4 0.0 0.0 0.00 0.00 0.00 75 1019.9
20260510004034 4 0.0 0.0 0.00 0.00 0.00 75 1019.9
20260510003532 4 0.0 0.0 0.00 0.00 0.00 75 1020.0
20260510003031 4 0.0 0.0 0.00 0.00 0.00 75 1020.0
20260510002529 4 0.0 0.0 0.00 0.00 0.00 75 1020.0
20260510002027 4 0.0 0.0 0.00 0.00 0.00 75 1020.1
20260510001525 4 0.0 0.0 0.00 0.00 0.00 75 1020.2
20260510001024 5 0.0 0.0 0.00 0.00 0.00 75 1020.2
20260510000522 5 0.0 0.0 0.00 0.00 0.00 75 1020.3
20260510000020 5 0.0 0.0 0.00 0.00 0.00 75 1020.2
20260509235518 5 0.0 0.0 0.00 0.00 0.00 75 1020.2
20260509235048 5 0.0 0.0 0.00 0.00 0.00 75 1020.2
20260509235016 5 0.0 0.0 0.00 0.00 0.00 75 1020.2
20260509234534 5 0.0 0.0 0.00 0.00 0.00 75 1020.2
20260509234033 5 0.0 0.0 0.00 0.00 0.00 75 1020.2
20260509233531 5 0.0 0.0 0.00 0.00 0.00 75 1020.3
20260509233029 5 0.0 0.0 0.00 0.00 0.00 74 1020.3
20260509232527 5 0.0 0.0 0.00 0.00 0.00 74 1020.3
20260509232025 5 0.0 0.0 0.00 0.00 0.00 74 1020.3
20260509231524 5 0.0 0.0 0.00 0.00 0.00 74 1020.2
20260509231022 5 0.0 0.0 0.00 0.00 0.00 74 1020.3
20260509230520 6 0.0 0.0 0.00 0.00 0.00 74 1020.4
20260509230018 6 0.0 0.0 0.00 0.00 0.00 74 1020.4
20260509225516 6 0.0 0.0 0.00 0.00 0.00 74 1020.5
20260509225035 6 0.0 0.0 0.00 0.00 0.00 74 1020.4
20260509224533 6 0.0 0.0 0.00 0.00 0.00 74 1020.5
20260509224031 6 0.0 0.0 0.00 0.00 0.00 74 1020.5
20260509223529 6 0.0 0.0 0.00 0.00 0.00 73 1020.4
20260509223028 6 0.0 0.0 0.00 0.00 0.00 73 1020.5
20260509222526 6 0.0 0.0 0.00 0.00 0.00 73 1020.5
20260509222024 6 0.0 0.0 0.00 0.00 0.00 73 1020.5
20260509221522 6 0.0 0.0 0.00 0.00 0.00 73 1020.5
20260509221020 6 0.0 0.0 0.00 0.00 0.00 73 1020.6
20260509220518 7 0.0 0.0 0.00 0.00 0.00 73 1020.6
20260509220016 7 0.0 0.0 0.00 0.00 0.00 73 1020.5
20260509215535 7 0.0 0.0 0.00 0.00 0.00 72 1020.6
20260509215034 7 0.0 0.0 0.00 0.00 0.00 73 1020.5
20260509214531 7 0.0 0.0 0.00 0.00 0.00 73 1020.5
20260509214029 7 0.0 0.0 0.00 0.00 0.00 72 1020.6
20260509213526 7 0.0 0.0 0.00 0.00 0.00 72 1020.6
20260509213025 7 0.0 0.0 0.00 0.00 0.00 72 1020.6
20260509212524 7 0.0 0.0 0.00 0.00 0.00 72 1020.5
20260509212022 7 0.0 0.0 0.00 0.00 0.00 72 1020.6
20260509211519 7 0.0 0.0 0.00 0.00 0.00 71 1020.6
20260509211057 8 0.0 0.0 0.00 0.00 0.00 72 1020.5
20260509211017 8 0.0 0.0 0.00 0.00 0.00 72 1020.5
20260509210515 8 0.0 0.0 0.00 0.00 0.00 72 1020.5
20260509210034 8 0.0 0.0 0.00 0.00 0.00 71 1020.6
20260509205532 8 0.0 0.0 0.00 0.00 0.00 71 1020.6
20260509205030 8 0.0 0.0 0.00 0.00 0.00 71 1020.7
20260509204527 8 0.0 0.0 0.00 0.00 0.00 71 1020.7
20260509204026 8 0.0 0.0 0.00 0.00 0.00 71 1020.8
20260509203524 8 0.0 0.0 0.00 0.00 0.00 71 1020.7
20260509203023 8 0.0 0.0 0.00 0.00 0.00 70 1020.7
20260509202520 8 0.0 0.0 0.00 0.00 0.00 70 1020.7
20260509202049 8 0.0 0.0 0.00 0.00 0.00 70 1020.7
20260509202018 8 0.0 0.0 0.00 0.00 0.00 70 1020.7
20260509201516 9 0.0 0.0 0.00 0.00 0.00 70 1020.7
20260509201034 9 0.0 0.0 0.00 0.00 0.00 69 1020.8
20260509200533 9 0.0 0.0 0.00 0.00 0.00 69 1020.7
20260509200030 9 0.0 0.0 0.00 0.00 0.00 69 1020.7
20260509195529 9 0.0 0.0 0.00 0.00 0.00 69 1020.7
20260509195027 10 0.0 0.0 0.00 0.00 0.00 68 1020.6
20260509194525 10 0.0 0.0 0.00 0.00 0.00 68 1020.7
20260509194023 10 0.0 0.0 0.00 0.00 0.00 68 1020.7
20260509193521 10 0.0 0.0 0.00 0.00 0.00 68 1020.8
20260509193020 10 0.0 0.0 0.00 0.00 0.00 67 1020.7
20260509192518 10 0.0 0.0 0.00 0.00 0.00 67 1020.7
20260509192017 10 0.0 0.0 0.00 0.00 0.00 67 1020.7
20260509191534 10 0.0 0.0 0.00 0.00 0.00 66 1020.6
20260509191032 10 0.0 0.0 0.00 0.00 0.00 66 1020.7
20260509190530 10 0.0 0.0 0.00 0.00 0.00 66 1020.7
20260509190029 11 0.0 0.0 0.00 0.00 0.00 66 1020.6
20260509185526 11 0.0 0.0 0.00 0.00 0.00 65 1020.6
20260509185025 11 0.0 0.0 0.00 0.00 0.00 65 1020.5
20260509184522 11 0.0 0.0 0.00 0.00 0.00 65 1020.5
20260509184022 11 0.0 0.0 0.00 0.00 0.00 65 1020.4
20260509183519 11 0.0 0.0 0.00 0.00 0.00 64 1020.4
20260509183017 11 0.0 0.0 0.00 0.00 0.00 64 1020.4
20260509182535 11 0.0 0.0 0.00 0.00 0.00 64 1020.3
20260509182033 11 0.0 0.0 0.00 0.00 0.00 64 1020.3
20260509181531 11 0.0 0.0 0.00 0.00 0.00 63 1020.2
20260509181030 12 0.0 0.0 0.00 0.00 0.00 63 1020.1
20260509180528 12 0.0 0.0 0.00 0.00 0.00 63 1020.1
20260509180026 12 78 0.0 4.8 0.00 0.00 0.00 62 1020.1
20260509175524 12 0.0 0.0 0.00 0.00 0.00 62 1020.1
20260509175022 12 0.0 0.0 0.00 0.00 0.00 62 1020.1
20260509174520 12 118 0.0 1.6 0.00 0.00 0.00 62 1019.9
20260509174049 12 115 1.6 3.2 0.00 0.00 0.00 62 1019.9
20260509174018 12 115 1.6 3.2 0.00 0.00 0.00 62 1019.9
20260509173517 12 0.0 0.0 0.00 0.00 0.00 61 1020.0
20260509173034 12 0.0 0.0 0.00 0.00 0.00 61 1020.1
20260509172532 12 0.0 0.0 0.00 0.00 0.00 61 1020.1
20260509172031 12 52 0.0 1.6 0.00 0.00 0.00 60 1019.9
20260509171528 12 103 0.0 3.2 0.00 0.00 0.00 59 1020.0
20260509171026 12 70 1.6 1.6 0.00 0.00 0.00 60 1020.0
20260509170525 12 6 1.6 6.4 0.00 0.00 0.00 59 1019.9
20260509170023 12 356 0.0 6.4 0.00 0.00 0.00 59 1019.9
20260509165521 12 353 1.6 4.8 0.00 0.00 0.00 58 1019.8
20260509165048 12 352 0.0 4.8 0.00 0.00 0.00 59 1019.9
20260509165019 12 352 0.0 4.8 0.00 0.00 0.00 59 1019.9
20260509164518 12 1 1.6 9.7 0.00 0.00 0.00 58 1019.9
20260509164016 12 344 3.2 9.7 0.00 0.00 0.00 57 1019.9
20260509163534 12 350 4.8 12.9 0.00 0.00 0.00 57 1019.9
20260509163033 13 2 3.2 9.7 0.00 0.00 0.00 57 1019.8
20260509162531 13 351 4.8 11.3 0.00 0.00 0.00 57 1019.8
20260509162030 13 46 1.6 6.4 0.00 0.00 0.00 57 1019.7
20260509161527 13 333 1.6 6.4 0.00 0.00 0.00 57 1019.7
20260509161049 13 333 4.8 3.2 0.00 0.00 0.00 59 1019.7
20260509161025 13 333 0.0 3.2 0.00 0.00 0.00 59 1019.7
20260509160523 13 356 1.6 6.4 0.00 0.00 0.00 58 1019.8
20260509160021 13 347 3.2 9.7 0.00 0.00 0.00 57 1019.9
20260509155519 13 52 1.6 4.8 0.00 0.00 0.00 57 1020.0
20260509155049 13 17 4.8 16.1 0.00 0.00 0.00 57 1019.9
20260509155018 13 17 4.8 16.1 0.00 0.00 0.00 57 1019.9
20260509154515 13 352 3.2 11.3 0.00 0.00 0.00 58 1019.9
20260509154034 13 328 3.2 12.9 0.00 0.00 0.00 57 1019.9
20260509153533 13 24 1.6 9.7 0.00 0.00 0.00 58 1020.0
20260509153031 13 37 1.6 9.7 0.00 0.00 0.00 57 1019.9
20260509152528 13 344 4.8 14.5 0.00 0.00 0.00 57 1019.9
20260509152026 13 283 1.6 4.8 0.00 0.00 0.00 58 1019.9
20260509151525 13 335 4.8 11.3 0.00 0.00 0.00 57 1020.0
20260509151023 13 332 3.2 12.9 0.00 0.00 0.00 58 1019.9
20260509150521 12 4 1.6 14.5 0.00 0.00 0.00 59 1019.9
20260509150019 12 313 3.2 9.7 0.00 0.00 0.00 59 1020.0
20260509145517 12 354 4.8 9.7 0.00 0.00 0.00 59 1020.0
20260509145048 12 335 3.2 11.3 0.00 0.00 0.00 59 1019.9
20260509145015 12 335 3.2 11.3 0.00 0.00 0.00 59 1019.9
20260509144534 12 331 4.8 12.9 0.00 0.00 0.00 58 1019.9
20260509144032 12 336 4.8 14.5 0.00 0.00 0.00 59 1019.9
20260509143530 12 341 4.8 14.5 0.00 0.00 0.00 59 1019.9
20260509143028 12 346 3.2 9.7 0.00 0.00 0.00 60 1019.9
20260509142526 12 293 3.2 14.5 0.00 0.00 0.00 60 1019.9
20260509142025 12 352 3.2 9.7 0.00 0.00 0.00 61 1020.0
20260509141523 12 10 1.6 11.3 0.00 0.00 0.00 62 1020.0
20260509141021 12 338 1.6 9.7 0.00 0.00 0.00 61 1019.9
20260509140519 12 337 4.8 16.1 0.00 0.00 0.00 61 1020.1
20260509140048 12 301 3.2 11.3 0.00 0.00 0.00 61 1020.0
20260509140017 12 301 3.2 11.3 0.00 0.00 0.00 61 1020.0
20260509135516 12 307 6.4 17.7 0.00 0.00 0.00 60 1020.0
20260509135034 12 321 4.8 16.1 0.00 0.00 0.00 62 1020.0
20260509134532 12 360 3.2 11.3 0.00 0.00 0.00 62 1020.0
20260509134030 12 22 1.6 6.4 0.00 0.00 0.00 62 1020.1
20260509133529 12 340 6.4 14.5 0.00 0.00 0.00 62 1020.1
20260509133027 12 339 4.8 17.7 0.00 0.00 0.00 62 1020.0
20260509132525 12 331 4.8 25.7 0.00 0.00 0.00 64 1020.1
20260509132023 12 312 6.4 12.9 0.00 0.00 0.00 65 1020.2
20260509131521 11 298 3.2 9.7 0.00 0.00 0.00 66 1020.2
20260509131019 11 280 4.8 14.5 0.00 0.00 0.00 66 1020.2
20260509130517 11 296 6.4 14.5 0.00 0.00 0.00 66 1020.4
20260509130016 11 298 4.8 11.3 0.00 0.00 0.00 66 1020.3
20260509125534 11 280 4.8 11.3 0.00 0.00 0.00 66 1020.4
20260509125032 11 327 3.2 6.4 0.00 0.00 0.00 66 1020.6
20260509124530 11 306 4.8 17.7 0.00 0.00 0.00 66 1020.5
20260509124048 11 349 6.4 16.1 0.00 0.00 0.00 67 102.0
20260509124029 11 349 6.4 16.1 0.00 0.00 0.00 67 1020.5
20260509123527 10 355 4.8 14.5 0.00 0.00 0.00 68 1020.5
20260509123025 10 337 6.4 14.5 0.00 0.00 0.00 70 1020.5
20260509122523 10 327 3.2 9.7 0.00 0.00 0.00 72 1020.6
20260509122021 10 352 4.8 11.3 0.00 0.00 0.00 72 1020.7
20260509121520 10 305 4.8 12.9 0.00 0.00 0.00 72 1020.7
20260509121018 10 337 3.2 9.7 0.00 0.00 0.00 72 1020.8
20260509120516 10 308 4.8 12.9 0.00 0.00 0.00 73 1020.8
20260509120034 10 316 4.8 16.1 0.00 0.00 0.00 73 1020.8
20260509115533 10 325 3.2 11.3 0.00 0.00 0.00 73 1020.9
20260509115031 10 324 1.6 6.4 0.00 0.00 0.00 73 1020.8
20260509114529 10 357 4.8 17.7 0.00 0.00 0.00 73 1020.8
20260509114028 10 341 4.8 11.3 0.00 0.00 0.00 73 1020.8
20260509113526 10 342 4.8 12.9 0.00 0.00 0.00 73 1020.8
20260509113024 10 340 4.8 6.4 0.00 0.00 0.00 73 1020.8
20260509112521 10 0 3.2 12.9 0.00 0.00 0.00 73 1020.8
20260509112020 10 332 3.2 9.7 0.00 0.00 0.00 73 1020.8
20260509111518 10 340 6.4 14.5 0.00 0.00 0.00 73 1020.8
20260509111016 10 349 6.4 12.9 0.00 0.00 0.00 73 1020.8
20260509110534 10 359 8.0 16.1 0.00 0.00 0.00 73 1020.7
20260509110032 10 4 8.0 17.7 0.00 0.00 0.00 74 1020.8
20260509105531 10 344 8.0 20.9 0.00 0.00 0.00 75 1020.7
20260509105029 10 316 3.2 9.7 0.00 0.00 0.00 76 1020.6
20260509104527 10 299 3.2 11.3 0.00 0.00 0.00 76 1020.7
20260509104026 10 297 4.8 9.7 0.00 0.00 0.00 78 1020.6
20260509103523 10 294 3.2 9.7 0.00 0.00 0.00 77 1020.7
20260509103021 10 297 3.2 6.4 0.00 0.00 0.00 77 1020.6
20260509102520 10 300 4.8 14.5 0.00 0.00 0.00 76 1020.6
20260509102019 10 315 6.4 16.1 0.00 0.00 0.00 77 1020.6
20260509101516 10 314 6.4 12.9 0.00 0.00 0.00 77 1020.6
20260509101034 10 291 3.2 9.7 0.00 0.00 0.00 76 1020.6
20260509100532 10 320 4.8 12.9 0.00 0.00 0.00 77 1020.6
20260509100030 10 297 6.4 17.7 0.00 0.00 0.00 77 1020.6
20260509095528 10 308 6.4 16.1 0.00 0.00 0.00 76 1020.4
20260509095027 10 309 6.4 14.5 0.00 0.00 0.00 76 1020.4
20260509094525 10 295 8.0 16.1 0.00 0.00 0.00 74 1020.4
20260509094023 10 298 8.0 17.7 0.00 0.00 0.00 75 1020.4
20260509093521 10 308 8.0 14.5 0.00 0.00 0.00 75 1020.4
20260509093020 10 294 8.0 24.1 0.00 0.00 0.00 75 1020.3
20260509092518 10 325 6.4 16.1 0.00 0.00 0.00 75 1020.3
20260509092016 10 328 6.4 16.1 0.00 0.00 0.00 74 1020.2
20260509091535 10 312 6.4 12.9 0.00 0.00 0.00 74 1020.3
20260509091032 10 355 9.7 16.1 0.00 0.00 0.00 74 1020.3
20260509090531 10 338 4.8 12.9 0.00 0.00 0.00 74 1020.3
20260509090029 10 331 4.8 11.3 0.00 0.00 0.00 74 1020.2
20260509085527 10 307 6.4 11.3 0.00 0.00 0.00 73 1020.2